EW9579 Weather Reports


time (UTC)temp
C
wind
direction
speed
KPH
gust
KPH
rain 1hr
cm
rain 24hr
cm
rain mn
cm
humidity
%
barometer
mb
20260504081042 5 27 0.0 0.0 0.00 0.00 0.00 94 1004.3
20260504080539 5 41 0.0 1.6 0.00 0.00 0.00 94 1004.5
20260504050352 8 9 0.0 0.0 0.00 0.00 0.00 85 1006.0
20260504045849 9 9 0.0 0.0 0.00 0.08 0.08 84 1006.0
20260504045349 9 9 0.0 0.0 0.00 0.08 0.08 84 1005.8
20260504044847 9 10 0.0 0.0 0.00 0.08 0.08 83 1005.8
20260504044344 9 17 0.0 0.0 0.00 0.08 0.08 83 1005.8
20260504043841 9 20 0.0 0.0 0.00 0.08 0.08 82 1005.7
20260504043338 10 348 0.0 0.0 0.00 0.08 0.08 82 1006.0
20260504042835 10 349 0.0 0.0 0.00 0.08 0.08 81 1005.9
20260504042332 10 335 0.0 0.0 0.00 0.08 0.08 80 1005.8
20260504041828 10 335 0.0 0.0 0.00 0.08 0.08 79 1005.8
20260504041324 10 335 0.0 0.0 0.00 0.08 0.08 78 1005.8
20260504040821 10 335 0.0 0.0 0.00 0.08 0.08 76 1005.8
20260504040318 11 335 0.0 0.0 0.00 0.08 0.08 75 1005.9
20260504035814 11 327 0.0 0.0 0.00 0.08 0.08 74 1005.7
20260504035312 11 326 0.0 0.0 0.00 0.08 0.08 73 1005.8
20260504034809 12 344 0.0 0.0 0.00 0.08 0.08 70 1005.7
20260504034306 12 344 0.0 0.0 0.00 0.08 0.08 70 1005.6
20260504033803 12 349 0.0 0.0 0.00 0.08 0.08 69 1005.8
20260504033301 13 352 0.0 0.0 0.00 0.08 0.08 68 1005.9
20260504032757 13 346 0.0 0.0 0.00 0.08 0.08 66 1005.9
20260504032254 13 7 0.0 0.0 0.00 0.08 0.08 65 1005.8
20260504031751 13 8 0.0 0.0 0.00 0.08 0.08 64 1005.8
20260504031249 14 0 0.0 0.0 0.00 0.08 0.08 63 1005.7
20260504030744 14 328 0.0 0.0 0.00 0.08 0.08 62 1005.8
20260504030242 15 1 0.0 0.0 0.00 0.08 0.08 63 1005.5
20260504025738 15 323 0.0 0.0 0.00 0.08 0.08 62 1005.8
20260504025235 15 22 0.0 0.0 0.00 0.08 0.08 62 1005.5
20260504024732 14 65 0.0 1.6 0.00 0.08 0.08 63 1005.5
20260504024228 15 329 0.0 0.0 0.00 0.08 0.08 62 1005.7
20260504023726 15 332 0.0 1.6 0.00 0.08 0.08 62 1005.5
20260504023221 14 347 0.0 1.6 0.00 0.08 0.08 63 1005.4
20260504022718 14 347 0.0 0.0 0.00 0.08 0.08 63 1005.6
20260504022214 15 348 0.0 0.0 0.00 0.08 0.08 63 1005.4
20260504021712 15 334 0.0 0.0 0.00 0.08 0.08 60 1005.5
20260504021209 15 328 0.0 0.0 0.00 0.08 0.08 58 1005.4
20260504020705 15 306 0.0 0.0 0.00 0.08 0.08 59 1005.4
20260504020201 15 356 0.0 0.0 0.00 0.08 0.08 58 1005.3
20260504015658 16 14 0.0 0.0 0.00 0.08 0.08 57 1005.4
20260504015154 16 350 0.0 0.0 0.00 0.08 0.08 56 1005.3
20260504014650 16 351 0.0 0.0 0.00 0.08 0.08 55 1005.4
20260504014147 16 353 0.0 0.0 0.00 0.08 0.08 54 1005.3
20260504013645 16 330 0.0 0.0 0.00 0.08 0.08 53 1005.3
20260504013142 16 26 0.0 0.0 0.00 0.08 0.08 53 1005.3
20260504012639 16 340 0.0 0.0 0.00 0.08 0.08 53 1005.1
20260504012137 16 154 0.0 1.6 0.00 0.08 0.08 52 1005.0
20260504011633 16 12 0.0 0.0 0.00 0.08 0.08 53 1005.2
20260504011130 16 10 0.0 0.0 0.00 0.08 0.08 52 1005.0
20260504010626 16 347 0.0 0.0 0.00 0.08 0.08 51 1005.0
20260504010122 16 339 0.0 0.0 0.00 0.08 0.08 51 1005.0
20260504005619 17 338 0.0 0.0 0.00 0.08 0.08 51 1004.8
20260504005116 17 12 0.0 0.0 0.00 0.08 0.08 51 1005.0
20260504004614 17 316 0.0 0.0 0.00 0.08 0.08 51 1005.0
20260504004111 17 315 0.0 0.0 0.00 0.08 0.08 52 1004.8
20260504003607 18 316 0.0 0.0 0.00 0.08 0.08 49 1004.9
20260504003104 18 316 0.0 0.0 0.00 0.08 0.08 48 1004.9
20260504002600 19 316 0.0 0.0 0.00 0.08 0.08 47 1005.0
20260504002058 19 316 0.0 1.6 0.00 0.08 0.08 45 1004.8
20260504001556 20 311 0.0 0.0 0.00 0.08 0.08 44 1004.9
20260504001051 20 312 0.0 1.6 0.00 0.08 0.08 42 1004.8
20260504000549 20 346 0.0 1.6 0.00 0.08 0.08 43 1004.9
20260504000046 20 259 0.0 1.6 0.00 0.08 0.08 42 1004.9
20260503235544 20 322 0.0 1.6 0.00 0.08 0.08 43 1005.0
20260503235041 20 298 1.6 3.2 0.00 0.08 0.08 41 1005.1
20260503234538 20 4 0.0 1.6 0.00 0.08 0.08 41 1005.0
20260503234037 20 115 0.0 3.2 0.00 0.08 0.08 41 1004.9
20260503233533 21 328 1.6 1.6 0.00 0.08 0.08 40 1004.9
20260503233029 21 289 1.6 4.8 0.00 0.08 0.08 40 1004.9
20260503232526 21 252 0.0 3.2 0.00 0.08 0.08 41 1005.0
20260503232023 21 252 3.2 6.4 0.00 0.08 0.08 38 1005.0
20260503231521 21 21 3.2 4.8 0.00 0.08 0.08 39 1005.1
20260503231018 21 336 1.6 4.8 0.00 0.08 0.08 40 1005.2
20260503230514 21 344 4.8 6.4 0.00 0.08 0.08 39 1005.3
20260503230012 21 243 3.2 6.4 0.00 0.08 0.08 38 1005.3
20260503225509 21 258 3.2 9.7 0.00 0.08 0.08 38 1005.4
20260503225004 22 285 1.6 3.2 0.00 0.08 0.08 38 1005.3
20260503224501 21 331 1.6 4.8 0.00 0.08 0.08 38 1005.5
20260503223959 22 97 1.6 6.4 0.00 0.08 0.08 38 1005.3
20260503223457 22 16 3.2 4.8 0.00 0.08 0.08 41 1005.5
20260503222952 22 8 1.6 9.7 0.00 0.08 0.08 38 1005.3
20260503222451 22 343 4.8 9.7 0.00 0.08 0.08 38 1005.5
20260503221948 22 13 3.2 6.4 0.00 0.08 0.08 37 1005.5
20260503221447 22 159 1.6 6.4 0.00 0.08 0.08 39 1005.6
20260503220943 22 141 1.6 4.8 0.00 0.08 0.08 38 1005.4
20260503220439 22 320 1.6 4.8 0.00 0.08 0.08 38 1005.5
20260503215936 22 154 1.6 4.8 0.00 0.08 0.08 38 1005.5
20260503215433 22 228 0.0 3.2 0.00 0.08 0.08 39 1005.6
20260503214931 22 297 3.2 3.2 0.00 0.08 0.08 37 1005.5
20260503214429 22 254 1.6 4.8 0.00 0.08 0.08 39 1005.5
20260503213926 22 238 4.8 6.4 0.00 0.08 0.08 38 1005.5
20260503213424 22 237 3.2 4.8 0.00 0.08 0.08 38 1005.6
20260503212920 22 251 1.6 3.2 0.00 0.08 0.08 43 1005.6
20260503212418 21 345 0.0 3.2 0.00 0.08 0.08 40 1006.0
20260503211915 22 117 3.2 9.7 0.00 0.08 0.08 39 1005.7
20260503211412 21 249 3.2 14.5 0.00 0.08 0.08 40 1006.0
20260503210907 21 219 3.2 9.7 0.00 0.08 0.08 39 1005.9
20260503210404 21 265 3.2 9.7 0.00 0.08 0.08 39 1005.7
20260503205858 21 256 3.2 6.4 0.00 0.08 0.08 41 1006.0
20260503205356 21 250 3.2 4.8 0.00 0.08 0.08 40 1006.1
20260503204852 22 225 4.8 12.9 0.00 0.08 0.08 38 1006.1
20260503204349 22 239 1.6 9.7 0.00 0.08 0.08 40 1006.4
20260503203847 21 314 0.0 4.8 0.00 0.08 0.08 40 1006.5
20260503203344 21 219 8.0 16.1 0.00 0.08 0.08 40 1006.7
20260503202841 21 288 4.8 12.9 0.00 0.08 0.08 39 1006.6
20260503202339 21 336 0.0 9.7 0.00 0.08 0.08 41 1006.8
20260503201837 21 242 3.2 9.7 0.00 0.08 0.08 41 1006.7
20260503201333 21 123 1.6 6.4 0.00 0.08 0.08 39 1006.9
20260503200831 21 217 9.7 12.9 0.00 0.08 0.08 40 1007.0
20260503200327 20 307 1.6 3.2 0.00 0.08 0.08 48 1006.9
20260503195825 20 336 4.8 6.4 0.00 0.08 0.08 43 1006.9
20260503195321 20 276 4.8 14.5 0.00 0.08 0.08 40 1007.2
20260503194818 20 316 6.4 9.7 0.00 0.08 0.08 42 1007.4
20260503194314 20 358 0.0 3.2 0.00 0.08 0.08 44 1007.2
20260503193810 20 280 3.2 9.7 0.00 0.08 0.08 43 1007.6
20260503193306 20 186 4.8 4.8 0.00 0.08 0.08 43 1007.7
20260503192802 20 357 3.2 6.4 0.00 0.08 0.08 42 1007.7
20260503192258 20 259 3.2 11.3 0.00 0.08 0.08 43 1007.8
20260503191754 20 329 8.0 14.5 0.00 0.08 0.08 41 1007.7
20260503191251 19 157 4.8 9.7 0.00 0.08 0.08 44 1008.0
20260503190748 19 338 0.0 9.7 0.00 0.08 0.08 42 1007.8
20260503190245 19 303 8.0 16.1 0.00 0.08 0.08 40 1008.3
20260503185742 19 228 4.8 11.3 0.00 0.08 0.08 42 1008.1
20260503185238 20 194 6.4 12.9 0.00 0.08 0.08 40 1008.0
20260503184733 20 236 6.4 14.5 0.00 0.08 0.08 40 1008.2
20260503184229 19 19 1.6 6.4 0.00 0.08 0.08 48 1008.2
20260503183726 18 185 3.2 9.7 0.00 0.08 0.08 50 1008.4
20260503183223 18 141 3.2 9.7 0.00 0.08 0.08 51 1008.3
20260503182721 18 26 3.2 4.8 0.00 0.08 0.08 53 1008.7
20260503182220 18 343 6.4 11.3 0.00 0.08 0.08 52 1008.6
20260503181715 18 299 3.2 11.3 0.00 0.08 0.08 51 1008.8
20260503181213 17 267 6.4 12.9 0.00 0.08 0.08 51 1008.8
20260503180709 17 331 1.6 6.4 0.00 0.08 0.08 55 1008.8
20260503180208 17 4 8.0 12.9 0.00 0.08 0.08 49 1009.1
20260503175704 17 236 3.2 12.9 0.00 0.08 0.08 50 1009.0
20260503175202 17 317 3.2 4.8 0.00 0.08 0.08 51 1008.7
20260503174657 16 259 3.2 6.4 0.00 0.08 0.08 52 1009.0
20260503174155 16 292 6.4 12.9 0.00 0.08 0.08 55 1008.9
20260503173650 16 199 6.4 12.9 0.00 0.08 0.08 53 1009.0
20260503173147 16 147 3.2 11.3 0.00 0.08 0.08 55 1009.0
20260503172644 16 149 3.2 9.7 0.00 0.08 0.08 52 1009.0
20260503172141 16 84 3.2 12.9 0.00 0.08 0.08 51 1008.9
20260503171637 16 210 9.7 16.1 0.00 0.08 0.08 48 1009.1
20260503171135 16 122 3.2 9.7 0.00 0.08 0.08 52 1009.2
20260503170632 16 219 6.4 6.4 0.00 0.08 0.08 50 1009.2
20260503170128 16 24 9.7 16.1 0.00 0.08 0.08 49 1009.2
20260503150520 9 283 0.0 4.8 0.00 0.05 0.05 82 1012.3
20260503131413 10 141 3.2 4.8 0.00 0.00 0.00 65 1013.1
20260503130910 10 340 1.6 3.2 0.00 0.00 0.00 65 1013.3
20260503130407 10 139 3.2 6.4 0.00 0.00 0.00 63 1013.4
20260503110811 9 56 0.0 6.4 0.00 0.00 0.00 54 1013.2
20260503110308 9 271 4.8 6.4 0.00 0.00 0.00 54 1013.0
20260503100234 8 322 0.0 1.6 0.00 0.00 0.00 54 1013.5
20260503090154 8 21 0.0 0.0 0.00 0.00 0.00 53 1013.7
20260503081624 8 337 0.0 4.8 0.00 0.00 0.00 51 1013.7